Simultaneous Nadir Overpasses (SNOs) Predictions

Prediction of SNOs between METOP-A and NOAA-19 Satellite Orbit:

Table of predicted SNOs for the next 14.0 days since TLE Epoch: 8/7/2013
Index Date (METOP-A) Time (METOP-A) Lat,Lon (METOP-A) SZA (METOP-A ) Date (NOAA-19) Time (NOAA-19) Lat,Lon (NOAA-19) SZA (NOAA-19 ) Distance(km) Time Diff (sec)
1 08/07/2013 20:17:27 74.00,-129.91 57.85 08/07/2013 20:16:18 74.01,-132.02 57.96 64.54 69
2 08/07/2013 21:08:18 -73.55, 36.34 122.55 08/07/2013 21:07:12 -73.53, 36.38 122.56 2.41 66
3 08/07/2013 21:58:58 73.53,-156.36 57.45 08/07/2013 21:58:13 73.55,-156.41 57.48 2.00 45
4 08/07/2013 22:49:40 -73.53, 10.96 122.54 08/07/2013 22:49:16 -73.51, 10.91 122.56 2.83 24
5 08/07/2013 23:40:21 73.46, 178.14 57.41 08/07/2013 23:40:16 73.47, 178.24 57.42 3.33 5
6 08/08/2013 00:31:03 -73.46, -14.54 122.59 08/08/2013 00:31:20 -73.49, -14.56 122.56 3.08 17
7 08/08/2013 01:21:43 73.45, 152.76 57.41 08/08/2013 01:22:20 73.45, 152.77 57.41 1.00 37
8 08/08/2013 02:12:25 -73.44, -39.92 122.58 08/08/2013 02:13:23 -73.42, -39.91 122.62 2.67 58
9 08/08/2013 03:03:08 73.28, 127.04 57.28 08/08/2013 03:04:21 73.28, 127.65 57.25 19.57 73
10 08/17/2013 21:51:53 73.97,-153.60 60.86 08/17/2013 21:50:43 73.99,-155.53 60.97 59.34 70
11 08/17/2013 22:42:43 -73.57, 12.78 119.50 08/17/2013 22:41:36 -73.59, 12.72 119.47 2.93 67
12 08/17/2013 23:33:23 73.55,-179.92 60.50 08/17/2013 23:32:38 73.53,-179.92 60.49 1.93 45
13 08/18/2013 00:24:06 -73.50, -12.72 119.54 08/18/2013 00:23:39 -73.52, -12.64 119.52 3.28 27
14 08/18/2013 01:14:45 73.53, 154.69 60.50 08/18/2013 01:14:42 73.51, 154.61 60.49 3.22 3
15 08/18/2013 02:05:28 -73.48, -38.10 119.54 08/18/2013 02:05:43 -73.50, -38.11 119.52 1.95 15
16 08/18/2013 02:56:08 73.46, 129.19 60.46 08/18/2013 02:56:45 73.44, 129.26 60.44 3.14 37
17 08/18/2013 03:46:50 -73.46, -63.49 119.53 08/18/2013 03:47:47 -73.47, -63.57 119.52 3.35 57
18 08/18/2013 04:37:34 73.24, 103.36 60.29 08/18/2013 04:38:46 73.27, 104.14 60.27 25.15 72




NCC Satellite Simultaneous Nadir Overpasses (SN
